Flag for Germany Weather past 2 weeks in Bühl, Baden-Württemberg, Germany

Now
52 °F

Light rain. Passing clouds.


Feels Like: 49 °F
Forecast: 47 / 53 °F
Wind: 9 mph from Southwest

Location: Karlsruhe - Baden Wurttemberg

Current Time: Dec 18, 2014 at 9:21:55 PM

Latest Report: Dec 18, 2014 at 8:50 PM


Visibility: 5 mi

Pressure: 30.12 "Hg

Humidity: 94%

Dew point: 50 °F

Location of BühlLocation

Historic Weather in Bühl — Graph

°F

Bühl temperature yesterday

Maximum temperature yesterday: 45 °F (at 10:20 PM)
Minimum temperature yesterday: 34 °F (at 4:50 AM)
Average temperature yesterday: 41 °F

Past Weeks' High & Low Weather Summary

 TemperatureHumidityPressure
High54 °F (Dec 18, 5:50 PM)100% (Dec 9, 5:20 AM)30.45 "Hg (Dec 9, 5:20 AM)
Low28 °F (Dec 8, 8:50 PM)50% (Dec 15, 2:50 PM)29.71 "Hg (Dec 12, 4:20 PM)
Average41 °F85%30.05 "Hg
* Reported Dec 3 7:50 PM — Dec 18 7:50 PM, Bühl, Weather by CustomWeather, © 2014

Note: Actual official high and low records may vary slightly from our data, if they occured in-between our weather recording intervals... More about our weather records

Advertising

Bühl weather history for previous 24 hours

 ConditionsComfort  
Time TempWeatherWind HumidityBarometerVisibility
7:50 PM
Dec 18
54 °FLight rain. Passing clouds.12 mph82%30.09 "Hg6 mi
7:20 PM52 °FPassing clouds.17 mph88%30.09 "Hg6 mi
6:50 PM52 °FPassing clouds.16 mph94%30.09 "Hg6 mi
6:20 PM52 °FPartly cloudy.14 mph88%30.09 "Hg5 mi
5:50 PM54 °FPassing clouds.14 mph82%30.07 "Hg6 mi
5:20 PM52 °FPartly cloudy.18 mph88%30.07 "Hg6 mi
4:50 PM52 °FLight rain. Passing clouds.15 mph88%30.04 "Hg6 mi
4:20 PM52 °FLight rain. Partly sunny.15 mph88%30.04 "Hg6 mi
3:50 PM52 °FLight rain. Partly sunny.15 mph88%30.04 "Hg6 mi
3:20 PM52 °FDrizzle. Overcast.17 mph88%30.04 "Hg3 mi
2:50 PM52 °FDrizzle. Mostly cloudy.17 mph88%30.01 "Hg2 mi
2:20 PM50 °FDrizzle. Partly sunny.20 mph94%30.01 "Hg6 mi
1:50 PM50 °FDrizzle. Fog.18 mph94%30.01 "Hg1 mi
12:50 PM50 °FDrizzle. More clouds than sun.17 mph94%30.01 "Hg2 mi
12:20 PM50 °FDrizzle. Low clouds.15 mph94%30.01 "Hg2 mi
11:20 AM48 °FDrizzle. Broken clouds.17 mph94%30.01 "Hg3 mi
10:50 AM48 °FDrizzle. Partly sunny.17 mph94%30.01 "Hg2 mi
10:20 AM48 °FDrizzle. Partly sunny.17 mph94%30.01 "Hg2 mi
9:50 AM48 °FDrizzle. More clouds than sun.16 mph94%30.01 "Hg2 mi
9:20 AM48 °FDrizzle. More clouds than sun.16 mph94%30.01 "Hg3 mi
8:50 AM48 °FDrizzle. Broken clouds.15 mph87%30.01 "Hg4 mi
8:20 AM46 °FDrizzle. Broken clouds.15 mph100%30.01 "Hg6 mi
7:50 AM46 °FPartly cloudy.13 mph93%29.98 "Hg6 mi
7:20 AM46 °FPartly cloudy.14 mph93%29.98 "Hg6 mi
6:50 AM46 °FPartly cloudy.16 mph93%29.98 "Hg6 mi
6:20 AM46 °FRain. Passing clouds.14 mph87%29.98 "Hg4 mi
5:50 AM46 °FPassing clouds.13 mph87%29.98 "HgN/A
5:20 AM46 °FPassing clouds.15 mph87%29.98 "HgN/A
2:50 AM46 °FPassing clouds.16 mph87%30.01 "HgN/A
2:20 AM46 °FPassing clouds.15 mph87%29.98 "HgN/A
1:50 AM46 °FPassing clouds.14 mph87%29.98 "HgN/A
1:20 AM46 °FPassing clouds.16 mph82%29.98 "HgN/A
12:50 AM46 °FPassing clouds.16 mph82%29.98 "HgN/A
12:20 AM45 °FPassing clouds.15 mph87%29.98 "HgN/A
11:50 PM
Dec 17
45 °FPassing clouds.14 mph87%29.95 "HgN/A
11:20 PM45 °FPassing clouds.12 mph87%29.95 "HgN/A
10:50 PM45 °FPassing clouds.13 mph87%29.95 "HgN/A
10:20 PM45 °FLight rain. Passing clouds.14 mph93%29.95 "HgN/A
9:50 PM43 °FLight rain. Passing clouds.15 mph93%29.92 "Hg5 mi
9:20 PM43 °FLight rain. Passing clouds.14 mph93%29.92 "Hg5 mi
Weather by CustomWeather, © 2014

See weather overviewHow to use our weather pages